Temp
10 10 10 11 11 11 12 12 13 12 12 10 10 9 9 9 9 8 8 8 8 9 9 9 9 9 10 10 10 12 12 12 12 11 10 11 12 11 12 12 11 11 11 13 14 15 16
9 9 10 10 10 10 11 11 11 12 12 11 11 9 9 9 8 8 8 8 8 8 8 10 9 9 10 10 12 12 12 12 12 11 10 10 11 11 13 11 12 10 11 12 13 15 16
9 9 9 9 9 9 9 10 11 11 12 12 11 9 9 9 8 8 8 8 8 10 10 10 9 9 8 10 13 13 13 12 12 11 11 12 12 12 12 11 11 12 12 10 13 15 15
9 9 9 9 9 9 9 9 10 11 11 12 10 9 9 9 8 8 8 8 10 11 11 11 10 9 8 13 13 13 13 13 12 12 11 11 12 12 13 13 13 12 10 10 12 14 15
8 9 8 8 8 8 9 8 9 10 10 11 11 9 9 9 8 8 7 10 11 12 12 11 10 9 9 13 12 13 13 12 12 12 12 12 12 12 14 13 13 13 12 10 11 14 15
8 8 8 8 8 8 8 8 8 8 9 10 11 9 9 10 8 8 7 11 12 12 11 11 10 9 12 11 12 13 13 13 12 12 13 12 11 12 11 12 13 13 12 12 11 13 15
8 8 8 8 8 8 8 8 8 8 8 9 11 9 8 8 8 8 8 11 10 10 11 10 10 10 10 12 12 13 12 12 12 11 11 11 12 12 12 12 13 14 13 13 13 13 13
8 8 8 8 8 8 8 8 8 8 8 8 9 9 8 8 8 7 7 9 10 10 10 11 10 10 11 11 11 12 13 12 11 11 11 10 11 12 12 12 14 14 13 13 13 14 14
8 8 8 8 8 8 7 7 7 7 7 8 8 10 7 8 8 7 8 10 10 10 9 10 11 11 11 11 11 11 11 11 10 11 10 10 12 13 14 14 14 14 13 13 14 14 14
8 8 8 8 7 8 7 7 7 7 7 7 8 8 7 8 7 8 9 10 10 10 5 10 11 11 11 11 11 12 12 11 11 11 11 11 12 13 14 14 14 14 15 15 14 14 13
8 8 8 8 8 8 7 7 7 7 7 8 7 8 7 7 8 8 10 10 10 10 7 11 10 12 11 11 11 12 12 12 11 11 11 11 11 12 13 14 14 14 14 14 13 13 13
7 7 7 7 7 7 7 7 7 7 7 7 7 8 7 7 7 9 9 10 10 8 8 9 10 11 11 11 11 11 11 12 11 11 10 10 11 11 12 13 14 13 13 12 11 12 12
7 7 7 7 7 7 7 7 7 7 7 7 7 7 7 7 8 9 9 9 8 8 9 9 9 10 11 11 11 11 11 10 9 8 5 8 10 11 12 12 13 13 13 12 12 13 12
7 7 7 7 7 7 7 7 7 7 7 7 8 7 7 7 8 9 9 9 8 11 8 10 10 10 10 10 11 10 10 9 10 10 6 6 8 11 12 12 12 12 12 10 12 11 10
6 7 7 6 7 7 7 7 7 7 6 7 7 7 7 8 8 8 8 8 10 9 9 10 11 10 10 11 11 10 9 9 10 9 9 8 9 11 11 12 12 11 10 12 9 9 7
6 6 6 6 7 6 6 7 7 7 6 7 7 7 7 8 8 8 8 10 9 10 11 11 12 10 9 10 10 9 10 10 11 9 11 10 8 11 11 12 11 12 11 11 11 12 12
6 6 6 6 6 6 6 6 7 6 6 7 6 7 7 8 8 8 8 9 9 11 12 11 10 9 10 10 9 9 10 11 10 11 10 11 10 9 10 10 10 11 11 11 11 11 10
6 6 6 6 5 6 6 6 6 6 6 6 7 7 7 8 8 8 8 9 11 11 12 11 10 11 9 9 9 9 10 10 8 11 10 11 10 9 10 11 10 12 11 10 11 10 8
6 6 6 6 6 5 6 6 6 6 6 6 7 8 7 8 8 8 9 9 10 11 11 11 11 11 11 10 11 9 9 9 7 8 8 10 7 7 7 10 10 10 10 11 10 9 7
6 6 6 5 5 5 6 6 5 5 6 6 7 7 7 7 8 8 9 10 11 11 10 11 11 11 11 11 10 10 9 8 8 7 9 9 6 6 6 7 8 7 10 9 10 11 8
6 6 6 6 5 5 5 5 5 5 6 6 7 7 8 7 8 8 8 10 10 10 11 11 11 10 10 9 9 9 8 8 7 7 6 6 3 7 8 8 8 9 9 9 9 10 9
6 6 6 6 6 5 4 6 6 6 6 7 7 7 7 7 8 8 8 9 10 10 10 10 10 9 9 8 9 7 7 7 7 6 5 5 1 5 3 6 7 8 9 10 10 9 10
5 6 6 6 6 5 5 5 6 6 6 7 7 8 8 7 7 8 8 9 11 9 9 8 9 7 8 8 6 5 4 4 3 3 4 3 4 2 4 6 8 6 8 10 10 10 11
5 5 6 6 6 6 5 5 5 7 6 7 9 8 7 7 7 9 10 10 9 10 8 7 7 8 6 3 4 4 3 4 4 4 4 3 2 5 4 6 6 9 10 11 10 10 11
5 5 6 6 6 6 6 5 6 8 7 7 9 8 7 7 8 9 9 7 7 6 6 6 6 5 4 6 5 6 3 5 5 5 4 3 3 2 5 6 7 10 9 9 9 8 8
5 5 5 6 6 6 6 6 8 7 8 10 9 9 7 8 8 7 7 7 6 5 5 5 5 4 5 5 6 4 5 4 7 6 3 4 4 3 4 6 7 9 8 8 7 9 7
5 5 5 6 6 6 6 5 7 8 9 9 9 8 7 5 3 5 7 7 5 4 4 4 5 5 5 5 4 4 6 6 6 5 5 5 4 4 3 3 6 8 8 7 9 9 7
5 5 5 5 6 6 5 5 7 8 8 8 7 9 7 3 3 3 3 5 4 4 5 3 4 3 4 3 2 2 3 5 5 5 4 5 5 7 5 5 5 7 8 10 7 6 6
5 5 5 5 5 6 6 6 6 7 7 7 8 7 7 4 3 3 3 3 3 4 2 2 4 3 3 2 -1 -1 3 -2 2 3 5 5 5 5 5 6 7 7 7 6 6 6 6
Height
835 833 829 826 823 821 818 813 807 805 803 802 801 799 795 795 794 793 792 790 786 785 782 780 779 775 771 771 769 761 756 754 751 750 751 752 751 751 752 753 758 763 775 764 751 747 736
835 832 829 825 822 819 815 812 807 801 799 798 797 797 792 793 791 790 789 788 785 783 781 779 778 776 773 773 765 761 756 753 751 751 752 753 754 753 751 759 760 771 770 765 754 747 736
833 830 827 824 822 818 814 809 806 802 795 794 793 794 792 790 788 788 786 786 783 780 779 777 777 775 775 770 763 761 757 754 751 750 754 753 753 751 755 756 760 770 773 775 758 747 741
833 830 825 824 821 817 813 808 804 800 794 790 790 791 789 788 788 786 784 783 781 779 777 776 776 774 773 763 762 761 758 755 753 750 751 751 749 750 750 754 760 770 780 781 761 753 748
831 828 826 821 820 817 812 806 802 799 794 788 786 787 788 784 786 784 782 780 780 778 776 775 775 774 770 762 762 760 759 756 754 755 753 751 751 750 750 751 759 771 774 781 771 762 752
828 825 823 820 817 815 810 806 802 796 793 789 784 783 785 781 783 782 780 778 778 776 774 774 774 778 765 765 761 759 758 758 755 753 752 752 753 754 757 752 764 765 762 767 775 770 754
829 827 822 817 814 812 809 806 801 796 791 786 783 781 782 781 782 781 780 777 780 778 774 776 774 772 766 763 760 757 756 756 755 755 756 755 755 756 760 763 762 756 759 762 759 765 759
824 820 817 814 811 809 806 803 799 795 790 783 781 779 780 783 780 782 781 778 775 776 777 771 770 769 766 765 763 756 755 756 758 764 761 768 766 761 761 758 757 761 762 772 775 764 766
818 815 812 810 808 804 802 801 797 792 787 782 777 772 777 776 779 781 781 776 775 774 779 772 768 767 767 766 765 761 758 758 761 763 767 770 763 759 758 757 758 760 764 761 758 761 760
814 811 808 805 802 800 799 797 795 790 785 780 774 769 774 771 783 779 779 776 775 774 803 773 768 767 767 766 765 760 759 761 760 763 764 765 764 761 758 757 758 760 754 752 753 756 765
809 805 801 800 797 794 794 793 791 788 781 776 776 771 770 774 776 776 777 776 776 775 814 770 768 765 766 768 767 762 761 759 763 761 765 765 764 762 758 755 755 758 752 756 759 767 769
803 800 795 793 791 789 789 788 787 784 776 772 770 769 770 774 776 774 776 778 777 796 797 772 766 766 768 767 766 765 764 762 763 763 766 765 764 764 760 755 753 753 757 761 771 772 775
796 793 789 786 785 783 782 782 781 778 773 769 767 765 767 770 775 773 777 781 790 794 775 772 769 767 767 768 768 768 768 771 777 789 802 777 765 761 759 759 756 757 763 775 774 772 777
791 786 783 780 778 775 775 776 776 773 769 763 755 762 765 767 775 774 778 784 792 760 775 763 762 766 769 768 768 771 774 779 774 774 800 800 785 762 756 758 760 762 763 783 771 781 789
785 780 776 772 770 768 768 770 770 769 767 761 758 762 763 767 774 776 781 786 764 764 762 762 761 767 769 764 765 770 775 779 773 774 784 788 778 760 759 756 757 763 776 764 788 794 814
777 772 767 763 761 760 760 763 764 766 765 764 761 762 762 766 773 779 781 768 762 755 754 756 754 764 772 769 771 776 773 769 767 770 767 771 789 764 760 758 760 759 764 771 773 770 771
770 763 757 753 751 750 753 757 760 763 762 760 763 763 762 764 773 779 778 770 759 751 749 753 759 767 765 768 773 778 770 768 768 765 769 768 773 775 766 766 766 764 763 767 768 770 779
761 753 746 744 743 743 747 752 756 759 760 760 760 761 761 762 774 772 772 765 753 750 750 750 755 756 766 768 773 776 770 771 773 766 770 767 771 779 768 762 762 760 765 764 762 772 788
755 748 743 739 739 741 745 749 753 756 757 756 759 757 759 761 767 768 765 760 753 750 750 752 754 754 758 764 765 771 771 776 776 775 777 773 790 790 789 767 764 767 765 762 766 769 794
751 746 743 740 741 742 744 746 749 752 752 753 753 754 758 763 763 765 763 755 751 748 751 752 754 756 759 760 764 768 774 778 778 779 775 774 788 796 803 790 777 783 768 770 760 760 777
748 745 743 739 739 739 739 740 742 744 747 751 748 748 747 757 761 763 764 753 751 751 748 749 754 756 761 768 769 773 776 778 782 782 784 785 808 787 779 779 776 772 767 766 766 760 768
747 743 740 737 733 728 729 732 733 738 744 742 743 747 749 755 757 763 763 754 748 751 749 751 753 760 762 769 770 778 779 780 782 787 790 794 817 798 804 784 781 776 766 762 760 766 760
744 740 737 733 731 727 726 727 724 729 739 737 738 739 741 752 757 760 754 748 744 749 755 758 757 766 767 770 775 780 784 788 793 797 796 804 802 812 802 783 772 788 763 757 754 754 754
738 734 735 731 725 723 723 723 724 726 729 731 734 732 745 752 753 744 744 745 748 747 755 762 762 765 775 776 780 784 789 791 792 793 795 804 810 799 805 783 792 763 753 752 755 754 750
732 729 729 729 725 718 715 713 702 694 714 729 731 735 740 746 744 742 745 752 756 760 763 766 770 772 773 776 782 784 798 792 791 795 797 802 805 815 798 789 781 755 763 764 759 764 765
728 725 724 723 720 719 716 707 698 697 710 721 729 734 734 736 744 745 749 752 757 768 771 773 774 774 774 779 778 795 796 798 786 793 802 798 799 808 806 796 783 767 763 764 763 763 765
724 722 719 718 714 714 713 709 704 705 712 721 727 730 733 742 752 749 748 751 756 764 772 774 775 775 777 781 788 795 783 785 791 798 794 798 804 806 814 812 785 766 762 761 760 767 767
717 718 715 715 712 711 711 709 706 709 713 720 727 729 730 743 755 754 754 753 756 760 765 773 776 780 782 787 797 801 795 790 791 790 793 791 792 784 797 797 795 767 762 756 769 769 768
710 711 711 710 710 707 707 705 705 710 716 723 727 729 730 738 758 756 758 756 755 756 763 770 768 772 772 785 801 803 794 817 799 800 783 786 783 785 786 778 768 766 766 768 769 771 768
Wind_Speed
22 25 25 27 26 29 30 30 26 23 22 18 16 14 11 14 16 16 15 14 12 11 14 14 16 18 10 3 4 15 18 10 8 5 8 4 2 2 4 4 7 4 5 14 15 13 4
23 24 25 25 26 26 28 31 36 24 22 21 18 15 12 14 15 16 15 14 12 10 13 13 15 17 4 1 9 15 15 8 5 2 3 3 3 4 8 4 5 5 12 17 14 8 11
21 22 24 26 26 27 29 30 33 34 26 25 18 15 14 14 14 15 15 14 12 8 9 13 13 15 4 6 10 12 11 9 5 4 1 3 7 3 7 3 10 5 5 14 9 11 7
23 24 24 26 27 28 31 32 33 34 28 26 18 14 13 14 16 17 15 14 10 8 9 12 12 6 5 5 8 9 10 3 6 3 7 4 3 2 4 14 6 5 5 6 12 17 4
23 25 25 24 27 29 30 28 30 31 33 27 20 12 15 13 16 17 16 11 11 8 8 8 5 2 7 12 4 8 7 5 7 3 4 7 2 2 3 6 6 4 2 3 9 12 6
23 24 24 25 26 27 28 28 31 32 33 30 23 13 14 12 15 15 16 11 9 8 3 4 4 3 4 4 7 11 7 2 1 4 3 3 4 3 3 5 3 5 2 5 5 7 10
25 26 24 23 25 27 27 29 28 30 30 26 24 14 11 10 13 12 13 5 2 2 1 3 4 4 5 11 7 6 5 1 1 5 4 5 6 4 4 1 2 2 4 4 4 5 7
27 26 25 24 25 25 27 28 27 31 33 33 34 18 8 11 10 9 10 3 2 2 3 5 4 5 7 5 4 5 11 4 4 3 3 6 3 1 5 4 2 3 5 4 8 12 7
27 26 26 27 27 27 26 27 29 29 31 34 46 20 8 5 8 8 9 4 3 3 2 4 3 3 4 2 3 5 6 3 4 3 4 5 3 3 1 1 3 1 4 4 4 8 1
30 29 29 27 25 27 27 26 29 30 30 33 40 14 8 2 4 5 5 8 4 3 4 4 2 3 1 1 3 2 4 2 4 3 2 2 1 1 0 2 2 1 3 2 7 4 0
33 32 30 29 27 25 26 25 27 29 31 28 26 13 11 11 2 4 3 9 6 1 3 2 2 1 1 1 3 4 4 5 2 4 5 2 2 1 2 2 2 2 2 5 4 3 2
36 34 32 31 30 27 25 23 26 29 30 28 21 18 12 7 9 2 8 8 2 5 6 2 3 1 1 0 1 3 4 4 2 3 4 3 2 3 2 2 2 4 5 7 5 2 2
35 34 33 32 31 30 27 22 25 29 28 34 33 20 16 8 2 11 11 1 3 3 3 3 4 4 2 2 1 1 1 3 1 4 4 7 3 2 2 1 2 3 4 1 0 2 3
36 35 34 34 32 30 27 22 22 26 27 33 15 19 13 12 5 15 8 2 2 3 5 2 3 4 4 5 2 2 1 2 3 2 2 1 7 2 1 4 4 3 5 4 5 3 2
38 36 35 36 33 28 26 21 19 23 23 15 17 14 10 11 10 15 2 2 5 5 5 8 3 3 3 2 1 2 3 3 5 7 5 3 5 2 2 2 1 2 2 3 6 2 2
38 38 38 35 36 30 25 18 17 18 18 11 5 5 6 13 16 5 1 4 4 3 4 2 3 3 5 4 4 3 2 2 2 7 1 2 3 1 5 2 2 3 5 3 2 3 4
40 42 40 38 34 22 21 14 17 16 16 9 7 3 12 17 13 2 3 5 5 4 3 3 4 4 3 5 6 4 3 1 3 1 5 3 2 5 3 4 6 2 2 1 3 3 4
42 42 37 29 18 18 17 13 14 13 13 12 4 2 20 25 5 2 3 4 4 3 1 2 4 3 6 6 4 4 4 1 7 1 3 3 3 4 7 2 1 2 3 4 3 3 2
40 31 26 12 12 7 12 13 14 14 12 7 4 2 12 10 4 4 3 4 4 3 3 3 2 2 2 5 2 4 4 2 7 4 2 3 2 3 9 0 3 3 4 7 1 2 5
30 25 19 13 11 12 13 15 15 16 15 8 3 3 2 2 1 2 3 4 3 1 3 3 3 3 3 1 2 3 2 3 3 3 7 2 3 5 5 5 2 3 3 5 7 2 3
26 21 19 15 11 17 20 24 23 20 19 13 3 2 4 5 7 5 2 3 4 4 1 2 2 3 5 3 1 3 2 1 5 7 5 3 1 1 9 10 8 6 9 6 6 4 4
27 21 21 20 24 31 28 20 25 25 21 12 4 3 1 3 4 12 4 4 7 2 4 2 3 4 4 5 4 5 4 1 2 5 3 4 1 2 4 7 9 10 8 11 13 8 10
29 23 22 23 25 22 19 13 7 13 26 8 5 1 4 4 5 9 5 4 7 8 2 3 6 5 4 3 4 4 5 5 4 4 2 3 1 3 4 5 2 3 6 8 3 4 4
28 26 21 23 25 23 24 23 29 27 29 9 10 4 3 3 7 9 4 5 4 1 6 3 4 4 3 7 6 6 7 6 6 5 3 3 2 1 3 5 1 5 5 2 6 5 4
27 27 23 22 22 24 28 32 39 25 53 29 11 4 3 3 4 3 6 5 5 6 4 4 4 1 6 4 3 3 3 3 4 5 1 2 2 2 2 2 5 3 5 4 2 3 7
25 27 24 23 24 25 25 31 11 40 44 34 13 8 2 4 3 1 5 2 4 3 3 3 3 2 3 2 2 3 3 3 2 2 3 1 1 2 2 1 2 1 6 3 4 2 9
25 25 24 22 25 25 23 27 20 49 34 28 6 3 2 4 3 3 3 4 5 4 3 3 3 1 2 2 2 2 2 4 4 5 4 2 1 3 1 2 6 4 9 4 2 2 8
26 24 23 22 23 23 19 21 12 51 36 20 3 3 2 3 3 4 5 3 3 3 4 4 4 2 2 2 3 3 2 3 2 4 5 6 5 3 3 2 5 3 4 2 0 3 2
27 24 23 22 22 22 20 20 15 46 42 21 4 12 14 6 3 10 13 15 4 2 5 1 2 3 4 4 1 2 1 2 3 2 1 2 5 3 7 5 3 1 2 3 3 2 3
Wind_Direction
350 349 349 349 344 343 350 340 285 302 289 291 289 290 309 307 307 307 302 307 314 317 313 315 323 333 335 14 269 342 337 331 335 330 357 30 60 248 127 130 103 126 285 309 325 300 41
342 340 341 344 338 340 337 334 350 283 293 285 289 287 300 303 305 303 302 303 308 313 310 312 322 335 312 12 326 341 347 353 333 290 328 328 240 220 108 133 149 108 315 328 308 289 52
343 340 333 333 334 334 330 328 320 334 283 287 283 283 291 303 305 301 301 298 300 303 307 310 318 326 287 239 341 350 2 3 336 318 216 245 262 208 145 136 102 128 332 341 334 333 41
333 332 333 335 336 327 326 326 320 327 322 279 278 278 284 303 301 299 295 292 293 300 303 307 311 322 251 298 332 344 7 19 4 336 269 266 286 137 139 132 116 104 57 340 321 349 12
332 332 333 336 333 332 335 330 331 331 332 271 278 270 282 298 298 301 294 276 287 303 303 298 296 8 278 317 319 344 4 333 327 227 256 266 271 126 168 134 87 190 181 234 336 332 349
327 330 330 332 332 333 334 330 333 329 330 334 270 260 273 299 297 300 296 279 279 292 296 289 279 11 285 298 311 317 354 2 256 309 319 52 36 84 15 47 141 178 218 159 116 277 35
322 323 325 329 330 329 332 331 328 331 325 323 287 258 265 289 299 302 308 288 333 309 70 210 268 258 282 309 287 311 346 351 149 39 23 8 60 38 6 298 234 180 166 145 252 204 51
316 317 318 321 326 326 326 326 327 325 325 330 336 253 258 281 305 292 286 253 206 153 325 230 254 269 275 331 311 321 8 60 51 81 334 27 63 275 282 264 122 150 161 162 179 175 140
315 313 314 316 320 323 324 325 325 324 324 327 327 228 217 275 304 269 250 245 150 142 76 287 205 264 266 335 296 300 17 349 51 74 30 132 216 307 354 83 76 60 165 238 159 155 36
308 307 307 311 312 315 316 319 318 319 317 324 327 199 202 158 239 233 238 195 166 153 57 247 235 269 259 298 294 291 354 35 22 58 58 158 273 268 268 99 119 143 256 181 115 101 232
307 302 301 300 301 304 308 312 312 311 313 317 329 217 176 197 176 179 261 175 178 80 349 228 168 132 79 220 321 356 352 359 27 351 72 246 40 77 220 225 176 176 40 138 128 108 121
308 304 300 297 297 297 298 303 304 307 312 310 308 228 176 195 232 218 167 178 206 50 255 204 133 166 147 164 328 328 7 29 3 16 354 253 276 185 243 297 314 158 60 52 56 46 226
311 307 304 298 294 292 291 293 297 304 310 312 314 196 177 179 224 179 172 191 64 176 2 214 194 161 171 202 322 69 4 348 168 37 346 337 292 291 173 313 347 101 104 63 195 216 222
309 307 305 303 296 289 287 288 291 301 310 316 279 176 179 182 266 169 168 68 170 186 200 243 139 118 168 161 211 153 106 306 232 115 97 71 328 203 156 191 198 178 161 155 193 193 220
309 306 303 302 294 283 283 279 283 298 311 335 152 168 151 212 197 174 130 178 224 198 170 155 72 134 217 212 158 150 208 214 223 188 169 160 274 287 185 295 138 189 181 166 107 118 80
310 307 302 298 295 285 270 267 281 291 302 317 165 171 164 191 174 185 180 258 258 215 144 136 140 154 167 193 158 170 213 209 268 202 97 235 316 324 326 94 282 205 174 102 119 219 184
312 308 303 297 292 272 262 252 261 281 292 289 166 159 188 171 156 217 216 243 275 232 162 152 166 138 169 179 169 204 224 51 343 34 181 166 198 296 349 216 195 152 207 312 136 153 177
317 315 309 298 291 274 256 247 256 277 282 175 156 213 169 152 168 200 208 212 273 172 197 112 116 113 172 166 155 216 203 331 338 273 138 228 176 264 236 292 163 162 289 218 165 183 90
323 325 327 316 297 263 246 244 258 266 257 183 177 188 156 158 172 209 253 271 251 168 177 138 134 131 141 175 149 182 148 96 12 55 63 5 337 356 335 208 65 18 298 229 248 105 194
327 329 327 322 300 279 257 259 263 265 244 223 163 151 111 205 74 191 222 244 239 271 154 127 130 109 109 134 39 174 137 33 13 40 26 19 181 165 200 240 178 289 254 295 218 204 147
322 322 317 312 301 298 281 272 270 253 232 226 212 176 158 168 215 217 330 266 169 196 108 120 88 168 155 156 156 170 100 89 33 5 33 65 201 235 263 267 266 260 269 287 274 260 220
320 313 311 308 301 285 267 272 257 248 226 221 155 155 87 143 144 193 228 248 189 176 138 206 176 142 159 152 179 193 144 174 99 18 65 15 277 345 290 261 235 259 259 258 254 263 259
319 306 307 309 314 325 328 307 303 227 196 193 179 117 107 160 154 177 215 237 203 137 36 21 157 112 121 116 109 92 87 90 136 129 92 80 72 38 284 346 319 317 242 217 236 190 245
313 304 305 305 315 323 323 299 268 247 218 192 175 106 122 185 195 200 194 177 160 87 134 51 75 101 142 103 96 64 61 78 72 52 84 118 92 53 298 316 320 246 1 304 243 300 238
306 306 299 301 308 316 317 313 314 221 201 197 173 136 173 161 186 116 135 120 92 54 68 75 30 47 140 125 88 85 2 39 70 45 9 91 109 52 20 297 287 77 5 355 359 99 18
300 300 297 295 301 307 319 325 309 148 160 164 148 210 205 123 221 27 121 191 133 101 45 60 41 130 74 88 86 132 191 164 179 77 61 82 14 99 16 319 251 183 291 228 211 272 358
292 292 292 287 291 305 320 322 189 165 159 164 128 218 126 108 13 12 128 173 117 102 109 133 171 81 30 109 105 151 193 166 167 183 185 174 209 189 287 250 280 265 300 306 97 247 340
282 282 282 278 282 294 307 318 192 182 176 173 120 256 135 93 33 14 358 120 86 113 149 175 95 308 72 88 122 202 143 198 142 180 177 175 165 202 143 233 292 352 330 43 360 327 358
274 273 274 271 273 287 299 308 343 191 192 183 83 111 105 77 101 97 70 52 38 113 125 58 164 164 174 97 96 114 142 71 156 228 148 220 187 184 181 217 227 132 159 136 137 258 290